Location: Carimao
(10.4546°N, 66.7419°W)
Time: 07:59:10
(UTC+00:00)

Landsat 7 - Pass Details

Date: 19 May 2024
Orbit: 690 x 692 km, 97.9° (Epoch: 22 June)

Event Time Altitude Azimuth Distance (km) Brightness Sun altitude
Exits shadow 23:36:54 - 167° (SSE) 2,673 6.5 -13.2°
Reaches altitude 10° 23:38:12 10° 166° (SSE) 2,139 6.0 -13.5°
Maximum altitude 23:42:53 85° 79° (E) 697 3.7 -14.6°
Drops below altitude 10° 23:47:35 10° 350° (N) 2,138 6.8 -15.6°
Sets 23:49:49 0° 350° (N) 3,054 7.6 -16.1°
